TimeEDT,TemperatureF,Dew PointF,Humidity,Sea Level PressureIn,VisibilityMPH,Wind Direction,Wind SpeedMPH,Gust SpeedMPH,PrecipitationIn,Events,Conditions,WindDirDegrees,DateUTC
12:12 AM,57.2,57.2,100,30.03,10.0,Calm,Calm,-,N/A,,Overcast,0,2012-10-05 04:12:00
12:21 AM,57.2,57.2,100,30.03,10.0,Calm,Calm,-,N/A,,Overcast,0,2012-10-05 04:21:00
12:47 AM,57.2,57.2,100,30.03,8.0,Calm,Calm,-,N/A,,Overcast,0,2012-10-05 04:47:00
12:51 AM,57.9,57.0,97,30.03,8.0,Calm,Calm,-,N/A,,Overcast,0,2012-10-05 04:51:00
1:47 AM,57.2,57.2,100,30.02,5.0,Calm,Calm,-,N/A,,Overcast,0,2012-10-05 05:47:00
1:51 AM,57.9,57.0,97,30.01,5.0,Calm,Calm,-,N/A,,Overcast,0,2012-10-05 05:51:00
2:04 AM,57.2,57.2,100,30.01,5.0,Calm,Calm,-,N/A,,Overcast,0,2012-10-05 06:04:00
2:46 AM,57.2,57.2,100,30.00,4.0,Calm,Calm,-,N/A,,Overcast,0,2012-10-05 06:46:00
2:51 AM,57.9,57.0,97,30.00,4.0,Calm,Calm,-,N/A,,Overcast,0,2012-10-05 06:51:00
3:40 AM,57.2,57.2,100,30.00,5.0,Calm,Calm,-,N/A,,Overcast,0,2012-10-05 07:40:00
3:51 AM,57.9,57.0,97,30.00,6.0,Calm,Calm,-,N/A,,Overcast,0,2012-10-05 07:51:00
4:08 AM,57.2,57.2,100,30.00,5.0,Calm,Calm,-,N/A,,Overcast,0,2012-10-05 08:08:00
4:51 AM,57.9,57.0,97,30.00,4.0,Calm,Calm,-,N/A,,Overcast,0,2012-10-05 08:51:00
5:16 AM,57.2,57.2,100,30.00,4.0,Calm,Calm,-,N/A,,Overcast,0,2012-10-05 09:16:00
5:51 AM,59.0,57.0,93,30.00,3.0,Calm,Calm,-,N/A,,Overcast,0,2012-10-05 09:51:00
6:51 AM,59.0,57.0,93,30.00,3.0,Calm,Calm,-,N/A,,Overcast,0,2012-10-05 10:51:00
7:51 AM,59.0,57.0,93,30.01,6.0,WSW,3.5,-,N/A,,Overcast,250,2012-10-05 11:51:00
8:51 AM,60.1,57.9,93,30.00,7.0,Calm,Calm,-,N/A,,Overcast,0,2012-10-05 12:51:00
9:51 AM,60.1,57.9,93,30.00,10.0,SSW,4.6,-,N/A,,Overcast,200,2012-10-05 13:51:00
10:51 AM,61.0,57.9,90,30.00,10.0,Calm,Calm,-,N/A,,Overcast,0,2012-10-05 14:51:00
11:51 AM,63.0,59.0,87,29.99,10.0,WSW,4.6,-,N/A,,Overcast,240,2012-10-05 15:51:00
12:20 PM,64.4,59.0,83,29.98,10.0,South,4.6,-,N/A,,Mostly Cloudy,190,2012-10-05 16:20:00
12:51 PM,66.0,59.0,78,29.97,10.0,Calm,Calm,-,N/A,,Scattered Clouds,0,2012-10-05 16:51:00
1:51 PM,69.1,61.0,75,29.94,10.0,East,4.6,-,N/A,,Partly Cloudy,80,2012-10-05 17:51:00
2:51 PM,66.9,60.1,79,29.94,10.0,South,9.2,-,N/A,,Clear,180,2012-10-05 18:51:00
3:51 PM,64.0,59.0,84,29.91,9.0,South,8.1,-,N/A,,Clear,180,2012-10-05 19:51:00
4:08 PM,62.6,57.2,82,29.91,6.0,South,10.4,-,N/A,,Scattered Clouds,170,2012-10-05 20:08:00
4:15 PM,60.8,59.0,94,29.91,4.0,SSE,8.1,-,N/A,,Mostly Cloudy,160,2012-10-05 20:15:00
4:37 PM,60.8,59.0,94,29.91,1.0,South,4.6,-,N/A,,Overcast,180,2012-10-05 20:37:00
4:51 PM,61.0,59.0,93,29.92,4.0,South,5.8,-,N/A,,Mostly Cloudy,170,2012-10-05 20:51:00
5:35 PM,60.8,59.0,94,29.92,1.2,South,3.5,-,N/A,,Overcast,170,2012-10-05 21:35:00
5:51 PM,60.1,59.0,96,29.91,1.0,SSE,6.9,-,N/A,,Overcast,160,2012-10-05 21:51:00
6:31 PM,59.0,57.2,94,29.92,0.8,South,3.5,-,N/A,,Overcast,180,2012-10-05 22:31:00
6:51 PM,59.0,57.9,96,29.92,0.8,South,3.5,-,N/A,,Overcast,190,2012-10-05 22:51:00
7:51 PM,59.0,57.9,96,29.93,1.0,South,3.5,-,N/A,,Overcast,190,2012-10-05 23:51:00
8:15 PM,59.0,57.2,94,29.92,1.5,South,5.8,-,N/A,,Overcast,190,2012-10-06 00:15:00
8:37 PM,59.0,57.2,94,29.92,3.0,South,5.8,-,N/A,,Mostly Cloudy,180,2012-10-06 00:37:00
8:51 PM,59.0,57.9,96,29.92,3.0,Calm,Calm,-,N/A,,Scattered Clouds,0,2012-10-06 00:51:00
9:51 PM,59.0,57.0,93,29.91,6.0,Calm,Calm,-,N/A,,Clear,0,2012-10-06 01:51:00
10:51 PM,61.0,57.9,90,29.89,9.0,SSW,4.6,-,N/A,,Clear,200,2012-10-06 02:51:00
11:51 PM,60.8,57.2,88,29.89,8.0,SW,3.5,-,N/A,,Clear,230,2012-10-06 03:51:00